GW3958 Weather Reports


Display with metric or nautical units.
time (UTC)temp
F
wind
direction
speed
MPH
gust
MPH
rain 1hr
in
rain 24hr
in
rain mn
in
humidity
%
barometer
mb
20260503004504 46 174 2.0 3.0 0.00 0.00 0.00 65 1018.8
20260503003007 46 174 1.0 4.0 0.00 0.00 0.00 65 1018.9
20260503001512 47 174 2.0 4.0 0.00 0.00 0.00 64 1019.0
20260502234525 47 174 1.0 3.0 0.00 0.00 0.00 65 1019.2
20260502233007 47 174 2.0 4.0 0.00 0.00 0.00 64 1019.3
20260502224518 47 174 1.0 3.0 0.00 0.00 0.00 65 1019.5
20260502223022 47 174 1.0 3.0 0.00 0.00 0.00 65 1019.7
20260502213018 49 174 1.0 3.0 0.00 0.00 0.00 63 1019.7
20260502211532 48 173 1.0 3.0 0.00 0.00 0.00 65 1019.9
20260502204516 48 174 1.0 2.0 0.00 0.00 0.00 65 1020.0
20260502203018 49 174 1.0 2.0 0.00 0.00 0.00 64 1020.2
20260502201522 50 174 1.0 3.0 0.00 0.00 0.00 63 1020.2
20260502200026 49 174 1.0 3.0 0.00 0.00 0.00 63 1020.3
20260502194525 50 174 1.0 3.0 0.00 0.00 0.00 62 1020.3
20260502193013 50 210 2.0 4.0 0.00 0.00 0.00 61 1020.3
20260502191521 51 174 2.0 4.0 0.00 0.00 0.00 60 1020.3
20260502190020 51 174 1.0 2.0 0.00 0.00 0.00 59 1020.4
20260502184523 52 173 2.0 3.0 0.00 0.00 0.00 57 1020.3
20260502183010 53 174 2.0 3.0 0.00 0.00 0.00 57 1020.2
20260502181508 54 174 1.0 3.0 0.00 0.00 0.00 56 1020.2
20260502161512 68 10 3.0 8.0 0.00 0.00 0.00 33 1020.9
20260502151512 70 36 4.0 8.0 0.00 0.00 0.00 32 1021.5
20260502123007 74 353 1.0 5.0 0.00 0.00 0.00 31 1022.9
20260502121512 73 1 1.0 6.0 0.00 0.00 0.00 30 1023.0
20260502114504 74 15 3.0 7.0 0.00 0.00 0.00 29 1023.3
20260502113006 73 23 2.0 5.0 0.00 0.00 0.00 31 1023.5
20260502111512 71 90 1.0 8.0 0.00 0.00 0.00 31 1023.6
20260502110004 72 105 1.0 7.0 0.00 0.00 0.00 32 1023.8
20260502104503 71 30 3.0 8.0 0.00 0.00 0.00 30 1023.9
20260502103004 73 86 1.0 5.0 0.00 0.00 0.00 30 1024.0
20260502101514 72 131 1.0 6.0 0.00 0.00 0.00 30 1024.2
20260502091507 69 342 3.0 7.0 0.00 0.00 0.00 31 1024.8
20260502070015 64 174 0.0 1.0 0.00 0.00 0.00 44 1025.3
20260502064508 63 174 0.0 1.0 0.00 0.00 0.00 49 1025.3
20260502063024 63 174 0.0 0.0 0.00 0.00 0.00 52 1025.3
20260502061521 62 174 0.0 1.0 0.00 0.00 0.00 53 1025.6
20260502054513 60 174 0.0 0.0 0.00 0.00 0.00 54 1025.3
20260502053010 55 174 0.0 0.0 0.00 0.00 0.00 58 1025.2
20260502051514 53 174 0.0 0.0 0.00 0.00 0.00 64 1025.5
20260502050022 48 174 0.0 1.0 0.00 0.00 0.00 68 1025.4
20260502044523 46 174 1.0 2.0 0.00 0.00 0.00 71 1025.2
20260502043009 44 174 1.0 3.0 0.00 0.00 0.00 73 1025.2
20260502041512 43 173 2.0 3.0 0.00 0.00 0.00 75 1025.2
20260502040017 41 174 2.0 3.0 0.00 0.00 0.00 78 1025.3
20260502034520 41 173 2.0 4.0 0.00 0.00 0.00 78 1025.3
20260502033008 41 173 1.0 3.0 0.00 0.00 0.00 78 1025.2
20260502031513 41 173 1.0 4.0 0.00 0.00 0.00 78 1025.4
20260502030016 41 173 1.0 3.0 0.00 0.00 0.00 78 1025.3
20260502024503 41 174 1.0 3.0 0.00 0.00 0.00 77 1025.4
20260502023005 42 173 1.0 3.0 0.00 0.00 0.00 77 1025.5
20260502021514 42 173 1.0 3.0 0.00 0.00 0.00 77 1025.5
20260502020014 42 173 1.0 3.0 0.00 0.00 0.00 77 1025.4
20260502014525 42 173 2.0 3.0 0.00 0.00 0.00 77 1025.5
20260502013020 42 173 2.0 3.0 0.00 0.00 0.00 77 1025.5
20260502011506 42 173 1.0 3.0 0.00 0.00 0.00 77 1025.6
20260502010012 42 173 1.0 4.0 0.00 0.00 0.00 76 1025.7